This demonstration page uses our WeatherBlox Daily Observations layout. Learn more.

Left ArrowRight Arrow

39.08367, -84.50855

Hourly Observations for December 20, 2020

Temp ( °F °C ) Dew Point ( °F °C ) Humidity (%) Winds ( mph kmh ) Pressure ( in mb ) Visibility ( mi km ) Precip ( " mm )
12:53 am 00:53 Cloudy with Light Rain 40 4.4 37 2.8 89 89 SSW 12 19 30.07 1018 8 12.87472 0.05 1.27
1:49 am 01:49 Cloudy with Light Rain 39 4 37 3 93 93 SSW 8 13 30.07 1018 10 16.0934 0.02 0.508
1:53 am 01:53 Cloudy with Light Rain 40 4.4 37 2.8 89 89 S 8 13 30.05 1018 10 16.0934 0.02 0.508
2:18 am 02:18 Cloudy with Light Rain 40 4.4 37 2.8 89 89 S 9 15 30.06 1018 8 12.87472 0.01 0.254
2:53 am 02:53 Cloudy with Light Rain 40 4.4 37 2.8 89 89 S 10 17 30.06 1018 6 9.65604 0.03 0.762
3:25 am 03:25 Cloudy with Light Rain 40 4.4 37 2.8 89 89 SSW 10 17 30.07 1018 10 16.0934 0.02 0.508
3:37 am 03:37 Cloudy with Light Rain 39 3.9 37 2.8 93 93 SSW 10 17 30.07 1018 10 16.0934 0.02 0.508
3:53 am 03:53 Cloudy with Light Rain 39 3.9 36 2.2 89 89 S 13 20 30.05 1018 10 16.0934 0.02 0.508
4:21 am 04:21 Cloudy with Mist and Fog 39 3.9 37 2.8 93 93 S 8 13 30.07 1018 6 9.65604 0.001 0.001
4:53 am 04:53 Cloudy 39 3.9 37 2.8 93 93 S 7 11 30.05 1018 7 11.26538 0.001 0.001
5:11 am 05:11 Cloudy with Mist and Fog 39 3.9 37 2.8 93 93 S 6 9 30.06 1018 4 6.43736 0 0
5:53 am 05:53 Cloudy with Mist and Fog 39 3.9 37 2.8 93 93 S 6 9 30.05 1018 6 9.65604 0 0
6:53 am 06:53 Cloudy 40 4.4 38 3.3 93 93 S 9 15 30.03 1017 10 16.0934 0 0
7:53 am 07:53 Cloudy 40 4.4 38 3.3 93 93 SSW 7 11 30.03 1017 10 16.0934 0 0
8:53 am 08:53 Cloudy 40 4.4 39 3.9 97 97 S 6 9 30.02 1017 10 16.0934 0 0
9:53 am 09:53 Cloudy 41 5 40 4.4 96 96 S 8 13 30.01 1016 9 14.48406 0 0
10:53 am 10:53 Cloudy 42 5.6 40 4.4 92 92 WSW 8 13 30.01 1016 8 12.87472 0 0
11:53 am 11:53 Cloudy 44 6.7 40 4.4 85 85 WSW 8 13 30 1016 10 16.0934 0 0
12:53 pm 12:53 Cloudy 43 6.1 38 3.3 82 82 W 12 19 29.98 1015 10 16.0934 0 0
1:53 pm 13:53 Cloudy 45 7.2 37 2.8 74 74 SW 8 13 29.95 1014 10 16.0934 0 0
2:00 pm 14:00 Cloudy 45 7.2 37 2.8 74 74 SW 10 17 29.96 1015 10 16.0934 0 0
2:53 pm 14:53 Mostly Cloudy 45 7.2 36 2.2 71 71 SW 8 13 29.95 1014 10 16.0934 0 0
3:53 pm 15:53 Partly Cloudy 46 7.8 35 1.7 66 66 SSW 12 19 29.94 1014 10 16.0934 0 0
4:53 pm 16:53 Sunny 41 5 34 1.1 76 76 SSW 9 15 29.94 1014 10 16.0934 0 0
5:53 pm 17:53 Partly Cloudy 38 3.3 32 0 79 79 S 7 11 29.95 1014 10 16.0934 0 0
6:53 pm 18:53 Clear 36 2.2 31 -0.6 82 82 Calm 29.95 1014 10 16.0934 0 0
7:53 pm 19:53 Clear 33 0.6 31 -0.6 92 92 Calm 29.94 1014 10 16.0934 0 0
8:53 pm 20:53 Clear 35 1.7 32 0 89 89 Calm 29.94 1014 10 16.0934 0 0
9:53 pm 21:53 Clear 32 0 30 -1.1 92 92 Calm 29.94 1014 9 14.48406 0 0
10:53 pm 22:53 Clear with Mist and Fog 29 -1.7 27 -2.8 92 92 Calm 29.95 1014 6 9.65604 0 0
11:04 pm 23:04 Mostly Clear with Mist and Fog 28 -2.2 27 -2.8 96 96 WSW 3 6 29.98 1015 1.75 2.816345 0 0
11:25 pm 23:25 Cloudy with Mist and Fog 29 -1.7 29 -1.7 100 100 Calm 29.97 1015 2.5 4.02335 0 0
11:36 pm 23:36 Cloudy with Mist and Fog 31 -0.6 30 -1.1 96 96 Calm 29.97 1015 5 8.0467 0 0
11:53 pm 23:53 Cloudy with Mist and Fog 31 -0.6 30 -1.1 96 96 Calm 29.95 1014 5 8.0467 0 0

Powered by AerisWeather